Вернуться в каталог

ATLAS CENTAUR R/B

АктивенGTO
NORAD 10779·ROCKET BODY·🇺🇸 United States

Запущен Mar 31, 1978 с Cape Canaveral Space Force Station

Loading…

TLE

УстаревшееSource: Space-Track

Эпоха: Sep 11, 2026, 06:13 UTC

1 10779U 78035B   26254.25963629  .00000061  00000-0  20278-2 0  9996
2 10779  22.1245 337.8652 7178734 297.1638   8.8214  2.22755125393817

Отслеживайте ATLAS CENTAUR R/B в реальном времени с AllMySat

Download on the App Store